Regional Weather Roundup
Issued by NWS Cleveland, OH

Home | Current Version | Previous Version | Graphics & Text | Print | Product List | Glossary On
Versions: 1 2 3 4 5 6 7 8 9 10 11 12 13 14 15 16 17 18 19 20 21 22 23 24 25 26 27 28 29 30 31 32 33 34 35 36 37 38 39 40 41 42 43 44 45 46 47 48 49 50
000
ASUS41 KCLE 210902
RWRCLE
OHIO REGIONAL WEATHER ROUNDUP
NATIONAL WEATHER SERVICE CLEVELAND, OH
500 AM EDT SAT OCT 21 2017

NOTE: "FAIR" INDICATES FEW OR NO CLOUDS BELOW 12,000 FEET WITH NO
SIGNIFICANT WEATHER AND/OR OBSTRUCTIONS TO VISIBILITY.

OHZ001>008-015>018-024>027-034-035-043-044-211000-
   NORTHWEST OHIO

CITY           SKY/WX    TMP DP  RH WIND       PRES   REMARKS
DEFIANCE       MOCLDY    49  46  90 SE3       30.17S
FINDLAY        MOCLDY    53  46  77 CALM      30.19R
TOLEDO EXPRESS MOCLDY    50  49  96 CALM      30.18R
TOLEDO EXEC    CLOUDY    52  45  77 S5        30.20R
LIMA           PTCLDY    53  50  89 S6        30.19R
$$

OHZ009>014-019>023-028>033-038-089-211000-
   NORTHEAST OHIO

CITY           SKY/WX    TMP DP  RH WIND       PRES   REMARKS
CLE-HOPKINS    CLEAR     51  40  65 S7        30.24R
CLE-LAKEFRONT  CLEAR     56  40  55 SE12      30.20S
CUY CO. ARPT   NOT AVBL
LORAIN-ELYRIA  CLEAR     49  38  65 S5        30.22R
ASHTABULA      CLEAR     48  39  71 CALM      30.26R
AKRON-CANTON   CLOUDY    53  39  59 S3        30.24R
WOOSTER        CLEAR     38  36  92 CALM      30.24R
MANSFIELD      CLOUDY    55  42  61 S8        30.22S
YOUNGSTOWN     CLOUDY    41  37  86 SE6       30.25R
$$

OHZ042-051>053-060>062-070>072-077>081-211000-
  SOUTHWEST OHIO

CITY           SKY/WX    TMP DP  RH WIND       PRES   REMARKS
CINC-COVINGTON PTCLDY    56  53  90 S5        30.19R
CINC-LUNKEN    FOG       50  50 100 CALM      30.21R VSB 1/4
HAMILTON       CLOUDY    48  48 100 CALM      30.20R FOG
DAYTON         CLOUDY    55  52  89 S5        30.20R
WRIGHT-PAT AFB CLEAR     50  50 100 CALM      30.19R
DAYTON GENERAL CLOUDY    56  50  80 SE6       30.19R
WILMINGTON     CLOUDY    54  51  90 SE3       30.20S
$$

OHZ036-037-039>041-045>050-054>059-063>069-073>076-082>088-211000-
  CENTRAL AND SOUTHEAST OHIO

CITY           SKY/WX    TMP DP  RH WIND       PRES   REMARKS
COLUMBUS       PTCLDY    49  45  86 CALM      30.21S
OSU AIRPORT    CLOUDY    47  45  93 E3        30.21S
BOLTON FIELD   PTCLDY    46  44  95 CALM      30.21S
RICKENBACK AFB PTCLDY    46  44  94 CALM      30.21S
NEWARK         CLOUDY    42  39  89 CALM      30.23R
MARION         CLOUDY    51  41  68 SE8       30.21S
LANCASTER      PTCLDY    42  41  96 CALM      30.23R
ZANESVILLE     CLOUDY    44  40  85 CALM      30.23S
NEW PHILLY     NOT AVBL
$$



USA.gov is the U.S. government's official web portal to all federal, state and local government web resources and services.